Theta_e
307 307 306 306 305 305 305 305 305 304 305 301 298 301 299 297 296 305 309 314 311 303 295 297 296 294 296 299 298 298 298 295 296 296 297 295 299 296 294 295 294 295 294 293 292 293 288 291 289 289 289 291 296 298 298 299 296 293 289 292 291 291 284 283 284 287 287 287 288 289 288 290 287 284 284 284 283 283 281 280 280 277 277 280 276 274 278
306 306 306 305 305 304 304 305 305 304 303 300 300 299 297 298 298 301 309 312 310 299 288 289 292 294 297 297 296 299 297 296 294 294 296 295 295 295 293 295 297 293 296 294 291 294 286 290 291 288 290 289 296 295 295 297 291 292 289 289 292 283 283 284 280 279 278 279 279 282 284 283 281 281 283 284 283 280 280 277 274 275 279 281 274 272 279
306 305 305 304 304 304 303 303 303 303 302 302 299 296 299 298 300 300 303 308 305 295 297 293 292 293 293 294 294 296 296 298 298 297 295 296 294 294 293 296 294 292 294 292 293 293 292 286 289 290 287 288 293 292 292 292 288 291 291 294 293 285 283 282 276 275 272 269 268 266 272 279 282 284 281 282 283 281 278 273 276 274 281 280 277 277 284
305 305 304 303 303 302 302 302 301 301 301 299 297 295 296 293 285 296 297 302 301 300 302 298 295 292 292 291 294 296 294 297 298 299 297 299 298 297 295 295 296 292 291 288 289 289 291 289 283 285 284 287 288 291 292 291 289 291 294 288 285 278 281 280 278 278 277 279 275 279 280 278 276 279 279 280 280 279 277 278 276 274 277 276 278 279 279
304 304 303 302 302 301 301 301 301 300 299 299 296 293 294 296 288 291 287 298 298 296 299 296 296 292 296 289 294 292 294 295 295 300 293 298 297 295 295 293 292 290 291 289 288 288 286 288 287 284 282 285 287 292 290 289 290 293 290 290 282 278 279 280 280 279 281 281 281 282 282 278 279 277 278 280 278 277 274 274 274 279 272 272 279 278 275
304 303 303 302 301 301 300 300 300 300 298 299 296 289 293 287 291 295 297 292 288 291 292 297 295 296 296 292 295 292 293 293 291 295 297 296 298 292 291 294 294 292 291 290 284 284 284 286 283 285 284 285 288 287 288 287 291 290 288 287 282 279 276 278 281 279 281 281 280 280 279 279 279 279 278 278 279 277 273 272 277 276 273 273 277 278 276
304 303 303 302 302 301 301 300 300 300 298 298 292 288 291 292 289 288 291 289 293 294 294 296 295 294 295 292 294 291 292 291 294 292 290 292 290 295 286 290 292 292 291 289 285 285 280 279 284 283 281 281 283 282 285 287 288 287 284 285 281 276 272 277 280 275 278 279 279 280 277 277 279 278 279 279 279 279 278 278 280 279 277 278 279 279 279
304 303 303 303 303 302 302 301 300 300 299 297 290 288 288 288 289 284 290 289 287 289 294 294 294 291 295 290 292 292 291 289 291 291 291 287 289 293 289 289 291 291 288 287 285 286 286 282 281 281 281 281 281 282 283 283 285 283 283 284 282 279 273 280 277 273 270 276 278 278 278 278 276 278 278 278 279 278 278 279 279 279 278 279 279 278 278
304 303 303 303 303 302 302 301 301 300 299 290 288 287 290 289 289 291 285 285 286 286 288 291 292 290 292 291 292 293 292 291 292 290 293 291 288 290 289 288 286 286 288 286 286 286 284 283 283 283 283 283 284 280 278 284 281 282 280 281 279 279 272 278 277 270 268 274 274 275 277 275 273 275 277 277 277 276 278 277 279 278 276 278 277 275 276
304 303 303 302 302 301 302 302 301 301 300 290 289 284 291 289 289 291 287 283 289 286 284 288 288 286 292 293 292 291 291 293 290 285 290 287 288 289 291 288 288 284 284 283 285 285 285 286 285 285 285 286 284 284 283 283 281 276 278 280 276 277 273 271 270 269 268 273 274 273 274 273 271 273 277 277 278 279 279 279 280 280 280 276 274 275 280
304 303 303 302 302 302 302 302 302 301 297 288 286 284 288 286 287 287 287 281 282 284 287 287 289 289 292 293 291 293 289 292 291 287 285 289 288 288 291 289 287 283 284 285 288 288 288 287 287 286 285 285 284 285 285 285 284 283 281 278 276 279 276 269 272 268 266 269 269 273 271 267 268 277 280 279 277 277 276 276 278 280 280 278 279 277 275
304 304 303 302 302 302 302 302 302 301 299 292 289 285 288 291 289 288 283 280 281 284 286 285 289 287 290 290 292 290 289 289 288 291 288 286 287 288 290 289 288 279 286 288 288 288 288 288 286 285 284 283 283 284 284 283 283 286 284 282 276 276 276 270 272 269 266 265 265 268 265 268 278 279 279 279 279 278 277 278 278 278 275 275 275 275 273
304 303 303 303 302 302 302 302 302 301 301 294 292 286 288 292 288 285 283 281 277 280 282 281 285 286 286 286 285 285 285 285 287 287 286 285 284 284 285 287 285 285 289 287 287 284 281 278 277 280 278 280 279 281 281 281 281 283 283 283 280 274 274 271 273 271 271 270 268 262 264 273 274 275 275 277 276 277 276 274 277 277 276 277 276 276 277
303 303 303 303 303 302 302 302 302 302 301 298 292 288 290 290 286 285 284 280 278 280 281 281 282 282 283 284 283 282 282 283 281 283 283 284 282 282 284 286 287 290 288 287 283 281 275 274 265 270 270 272 268 271 275 279 281 281 281 282 283 279 277 274 270 277 267 269 268 269 269 271 274 274 274 276 275 274 273 269 272 274 271 273 273 274 274
303 302 302 302 302 302 302 302 302 302 301 301 294 292 290 290 289 285 284 282 275 279 281 279 279 281 283 282 283 281 280 281 282 280 280 280 279 281 282 283 284 286 284 283 278 277 273 267 264 266 262 263 262 265 272 270 275 280 281 282 282 281 277 277 272 268 273 265 266 265 263 263 268 272 272 276 276 275 274 266 265 272 269 270 273 273 270
302 302 302 302 302 303 303 303 302 301 301 301 296 292 290 290 289 288 284 279 276 272 276 282 282 282 282 281 283 283 280 279 278 277 278 277 278 281 281 280 281 283 282 279 277 274 269 267 262 262 263 261 263 262 262 269 267 273 276 279 279 279 280 277 275 271 273 268 266 265 263 264 268 267 272 275 273 275 275 269 266 270 270 269 273 271 271
302 302 301 301 301 301 301 301 301 301 301 301 295 294 291 294 289 286 282 281 279 274 281 282 282 282 280 280 282 280 280 279 279 275 273 276 278 277 277 279 279 282 280 277 277 271 268 263 262 260 261 265 263 263 264 264 261 265 275 276 274 275 273 275 273 272 272 270 268 265 267 265 269 271 274 277 276 276 273 263 260 271 270 270 271 270 271
302 302 302 301 302 302 302 301 301 301 301 301 297 293 292 294 291 289 284 280 276 275 279 284 283 281 279 279 278 280 280 277 276 276 276 274 273 274 274 276 276 279 281 277 273 268 266 264 267 265 264 269 270 268 261 264 257 262 266 271 267 270 269 272 271 272 272 273 269 270 270 272 270 273 275 275 276 273 264 263 268 271 271 272 273 273 273
303 302 301 301 301 301 301 301 301 301 301 301 297 294 292 294 292 289 283 282 278 273 279 284 285 281 283 283 279 280 280 281 279 275 272 273 273 273 275 273 279 271 275 271 271 265 267 263 267 261 261 265 270 263 266 263 263 268 270 266 265 264 264 263 267 270 269 270 269 269 269 271 271 273 276 276 273 263 266 272 271 273 273 273 275 275 274
301 301 301 301 302 302 301 302 301 301 301 301 298 291 293 295 293 291 285 278 279 275 279 282 283 281 283 281 280 278 278 279 277 276 274 268 272 277 273 269 273 269 269 273 266 266 264 264 266 265 263 262 264 268 261 260 269 267 266 269 266 268 266 262 266 268 268 266 266 265 262 269 274 275 274 275 268 268 274 272 274 273 274 274 273 275 276
301 301 301 302 302 301 301 302 301 301 302 302 300 293 291 294 294 293 290 284 277 274 275 282 284 283 283 282 282 282 281 279 278 276 278 275 279 276 268 268 273 271 271 270 267 266 265 263 264 264 266 268 266 267 263 260 265 270 270 267 265 268 261 260 263 269 260 264 264 263 269 274 276 276 270 272 276 275 274 275 272 275 274 274 275 276 277
301 301 301 301 301 301 302 302 302 302 302 302 300 296 291 294 295 294 291 287 281 275 275 286 286 283 285 285 285 285 283 282 282 281 278 275 278 275 271 269 272 270 271 269 265 265 267 264 267 264 266 265 267 266 259 261 263 263 264 268 264 272 269 268 267 268 267 264 263 269 274 275 276 277 276 275 277 276 275 277 277 276 276 276 276 277 277
301 301 300 301 302 301 301 302 302 302 301 301 300 295 291 293 293 295 292 287 287 287 287 283 284 285 288 289 287 288 286 286 285 282 282 279 274 276 273 273 272 277 276 277 273 270 269 269 267 266 264 266 269 264 263 265 260 262 265 272 271 272 274 274 271 270 272 272 272 274 273 274 275 277 278 277 277 277 275 276 275 276 277 277 277 277 277
300 300 301 301 301 300 301 301 300 301 302 302 300 296 293 295 294 293 290 289 286 282 285 285 281 279 282 283 287 288 288 287 288 286 285 284 276 272 278 278 279 278 273 277 279 271 269 267 268 266 265 267 267 264 266 263 266 264 265 266 269 273 275 271 270 274 269 264 273 274 276 276 277 277 276 277 277 278 278 276 277 277 277 277 277 278 278
300 301 300 300 300 300 301 301 301 301 301 300 300 299 295 293 295 293 288 283 283 282 277 282 283 286 286 288 288 286 288 288 289 287 285 283 282 279 277 279 282 280 277 279 279 274 269 268 271 268 267 269 273 265 268 268 266 272 267 269 268 271 276 272 274 272 271 271 274 273 275 276 277 277 275 275 276 277 277 278 278 278 278 277 278 277 277
300 300 300 300 300 300 300 300 300 300 301 301 300 295 293 293 296 295 291 289 286 284 279 278 281 287 288 285 284 287 288 289 288 286 286 285 284 284 281 283 282 281 279 280 278 276 269 269 267 267 268 270 276 268 267 273 270 273 272 272 275 274 275 266 270 271 273 275 275 276 277 276 276 276 276 277 278 277 277 276 276 276 276 276 276 276 277
300 300 300 300 300 300 300 300 300 300 300 301 298 296 294 295 297 293 289 288 284 279 282 278 282 281 283 285 286 287 288 288 287 287 286 286 285 284 282 281 281 280 280 278 278 273 271 269 268 270 270 268 274 268 272 270 272 268 269 275 276 273 271 275 271 268 268 268 273 274 267 270 275 276 277 278 277 277 277 277 276 275 275 275 275 275 275
299 299 299 299 299 299 300 300 300 300 300 300 298 293 294 292 295 296 294 291 287 281 280 278 277 280 284 280 285 288 289 289 288 287 286 286 286 284 283 282 280 279 278 278 275 275 273 272 273 273 271 269 273 270 277 276 276 272 274 276 278 274 275 274 271 270 270 275 277 277 277 277 278 278 278 277 277 277 276 277 277 277 277 277 276 275 273
298 299 299 299 299 299 300 300 300 300 300 299 291 290 290 294 296 297 295 294 290 286 283 281 279 276 277 281 286 285 287 288 287 287 286 286 285 285 285 284 282 282 281 281 281 280 277 277 279 273 271 274 273 270 276 271 272 271 275 279 279 279 279 277 277 276 277 278 278 276 275 275 277 278 278 277 277 276 276 277 277 277 277 275 275 276 276
298 298 298 299 299 298 299 299 299 300 300 296 290 287 285 286 294 295 297 295 291 287 282 280 277 279 280 279 280 284 285 287 287 286 285 285 285 285 286 285 284 285 284 282 281 277 280 279 279 278 278 280 274 273 273 274 272 274 279 279 280 280 280 280 280 277 276 280 279 276 275 277 278 277 277 277 277 276 276 276 276 276 275 274 274 274 274
297 298 298 298 298 298 298 299 299 299 299 290 288 282 281 279 287 296 298 295 293 288 284 284 280 282 276 281 281 283 284 286 285 285 285 286 286 286 286 286 284 285 281 282 281 281 282 276 279 278 280 281 280 274 273 273 272 274 277 279 279 279 279 279 280 280 280 280 280 279 275 277 277 276 276 276 275 274 274 273 274 275 275 272 274 274 271
297 297 297 297 297 298 298 298 298 298 295 289 286 284 283 284 289 292 297 297 294 287 283 279 279 278 277 281 280 282 285 286 286 286 286 286 283 286 284 285 282 285 284 281 282 281 279 281 279 280 279 282 280 272 276 274 272 273 278 279 280 279 280 279 279 279 279 279 278 276 276 277 278 277 278 280 278 276 275 277 274 270 270 268 264 263 263
296 297 297 297 297 297 298 298 298 297 292 293 297 297 293 294 296 295 296 295 290 285 285 281 275 278 276 277 278 276 283 283 283 284 282 287 283 285 282 285 284 283 288 282 279 278 281 281 281 278 281 282 276 276 274 273 274 278 279 279 279 279 278 278 278 279 279 278 278 276 276 277 278 279 278 278 277 275 274 272 266 265 264 263 263 264 262
296 296 297 297 297 297 297 297 297 297 296 290 286 288 292 295 294 295 293 289 285 285 284 279 276 275 273 277 270 276 285 281 281 284 279 286 285 284 281 283 284 280 282 280 281 278 277 280 278 278 280 276 280 274 271 275 278 279 279 279 279 279 279 277 277 277 278 278 278 279 279 280 277 270 271 271 270 267 266 265 265 265 263 264 265 265 263
296 296 296 296 297 297 297 296 291 289 285 287 287 289 292 295 295 295 293 288 282 280 280 279 279 273 272 268 267 273 284 282 279 283 279 282 287 282 283 279 282 278 279 286 279 279 276 276 278 273 272 278 275 271 273 276 278 279 279 279 279 279 278 276 277 278 279 279 276 276 275 274 274 274 274 272 271 267 266 263 264 267 265 266 266 264 263
295 295 295 295 295 295 289 291 288 286 284 285 285 294 297 296 296 292 289 285 284 280 278 277 278 274 275 271 268 271 284 279 282 282 282 282 281 285 283 281 275 280 283 279 275 279 276 280 274 270 278 273 271 274 276 278 277 278 278 278 279 279 278 278 278 278 276 274 271 271 270 269 272 274 275 273 269 264 265 265 262 263 266 267 266 265 263
294 295 295 293 288 286 284 285 289 287 285 290 293 296 295 291 287 287 286 286 286 285 280 278 274 274 277 272 271 273 280 272 281 278 280 278 276 281 279 277 274 279 276 275 276 276 279 282 275 273 274 272 274 279 279 279 278 278 278 279 280 280 279 278 278 277 275 269 267 268 268 268 269 269 268 267 266 264 262 264 264 265 265 267 265 263 262
295 294 286 282 281 281 281 284 284 288 296 294 293 287 284 285 278 282 282 280 283 283 278 280 275 276 276 273 271 279 279 274 280 274 274 279 276 275 279 276 276 278 268 273 276 281 277 275 274 272 274 278 279 279 279 279 280 280 280 280 279 279 278 277 274 273 271 270 268 266 263 263 265 265 266 267 264 263 265 265 263 262 262 262 261 260 257
290 285 284 284 282 279 277 277 291 296 291 290 286 277 278 282 279 277 276 279 281 276 280 278 276 279 275 274 275 282 278 275 273 274 271 279 275 271 276 270 278 276 271 272 273 281 271 273 273 273 272 276 277 278 280 280 279 280 280 280 280 279 276 275 274 275 274 275 277 275 273 273 271 270 267 266 262 262 260 259 259 258 257 256 256 255 255
283 282 282 281 280 280 285 287 295 291 287 281 282 279 274 280 276 272 278 273 274 276 279 273 280 279 280 276 274 272 280 275 272 272 273 274 278 269 274 271 274 272 267 270 271 277 271 269 273 271 270 275 276 279 279 279 278 280 280 279 277 273 270 274 270 265 268 263 260 257 258 259 263 265 265 265 264 262 256 255 256 256 255 255 255 255 254
283 281 281 278 278 279 281 284 285 284 282 278 276 277 275 271 275 274 274 271 272 272 278 276 279 277 280 280 278 273 278 277 273 273 274 270 278 276 271 268 277 269 269 268 274 271 269 267 268 269 271 276 277 278 278 278 278 278 275 268 267 266 265 262 260 259 261 259 256 254 253 253 253 254 258 260 262 263 260 257 254 253 253 254 254 253 253
283 282 282 282 281 280 280 278 274 275 276 278 272 269 274 273 268 263 270 269 271 270 268 274 272 275 274 279 278 278 273 274 272 276 274 271 279 273 270 269 273 267 265 271 273 270 270 266 268 269 273 275 277 277 277 277 276 276 266 260 263 262 263 262 259 255 256 258 255 254 253 252 251 252 251 254 254 254 254 253 252 251 251 250 251 252 252
288 285 283 276 278 277 278 273 276 276 269 270 271 266 270 266 268 267 266 271 269 267 266 270 268 277 276 279 272 274 277 281 277 276 274 272 278 275 271 269 269 265 269 272 271 269 267 267 268 271 275 275 276 276 276 275 269 264 261 259 260 260 261 260 258 255 253 254 253 252 251 250 250 248 248 250 251 250 249 250 249 248 249 249 249 250 250
282 281 278 276 274 276 278 268 276 269 268 270 268 266 266 263 267 267 264 266 265 265 271 273 272 275 271 276 276 275 275 278 281 272 271 275 271 269 270 266 268 271 271 267 268 267 269 270 272 274 275 272 272 271 272 263 260 259 257 257 256 257 256 255 255 254 252 252 251 251 250 249 249 249 248 247 248 248 247 247 249 250 250 248 250 249 248
277 276 276 274 270 275 273 266 277 269 267 268 270 267 269 267 270 269 270 267 268 268 271 271 273 272 272 270 270 272 279 272 279 273 270 273 267 270 267 266 270 269 267 266 266 264 264 265 271 270 268 266 269 264 261 262 262 263 260 256 257 256 256 256 255 253 252 251 250 250 250 249 249 248 248 247 245 246 247 247 247 248 249 248 248 249 250
276 274 274 269 267 273 269 267 268 263 268 271 268 268 269 270 267 267 267 267 266 268 272 273 272 273 270 270 273 273 272 272 271 272 273 272 267 267 270 270 270 266 265 265 264 264 268 271 272 269 271 272 270 260 259 260 259 258 259 258 256 255 254 253 252 252 251 251 250 250 250 249 249 249 248 246 246 245 245 246 247 247 249 248 247 246 248
276 278 274 273 268 271 271 267 268 266 267 266 266 266 269 269 268 271 270 269 270 273 273 272 274 274 274 269 268 268 268 272 270 272 271 266 266 268 272 267 264 265 263 262 264 267 269 272 273 272 268 265 258 257 257 257 257 257 257 256 254 253 253 252 252 252 252 252 251 251 250 250 249 249 249 249 246 245 247 246 246 249 247 246 246 246 247
271 276 273 267 266 270 267 268 266 263 261 265 266 265 265 265 269 270 270 269 273 275 273 273 269 269 268 269 269 267 266 267 268 269 271 269 269 263 264 263 262 265 265 264 266 270 271 269 269 265 258 257 258 257 256 256 256 256 255 254 253 252 252 252 251 251 251 251 251 250 249 248 248 248 249 248 247 249 245 244 245 245 246 245 244 245 245
275 272 270 270 269 269 268 265 264 270 268 262 261 266 268 271 272 271 269 267 271 273 274 273 269 269 264 269 268 269 265 271 266 267 269 267 264 263 263 260 261 260 264 267 269 268 270 264 254 252 254 255 256 256 255 254 254 253 253 253 252 252 251 250 250 250 250 250 250 249 249 249 248 247 247 247 246 248 248 246 244 244 244 245 245 245 245
268 267 266 262 263 263 261 260 263 263 261 260 264 263 262 266 267 267 268 269 269 271 274 276 275 271 267 266 264 267 266 268 267 269 265 265 265 265 264 259 262 263 263 265 267 263 254 251 255 254 253 254 254 254 253 253 253 252 252 252 251 251 250 250 249 249 249 249 249 249 248 248 249 247 247 247 248 247 247 244 244 243 243 243 244 244 244
272 271 269 268 268 264 264 262 265 260 259 264 261 263 263 264 265 266 266 266 269 269 267 266 268 266 266 265 265 262 265 270 266 266 266 265 267 264 263 264 266 267 266 257 255 254 255 254 253 254 253 253 254 253 253 253 252 252 252 251 251 250 249 248 248 248 248 248 248 248 247 246 248 246 246 246 247 246 246 247 247 244 243 242 242 243 243
269 267 267 265 263 264 266 262 263 264 264 262 265 260 263 265 261 261 263 265 267 267 265 264 264 265 264 263 266 265 266 264 264 266 263 265 265 261 261 266 267 263 259 257 255 253 252 252 252 252 252 253 253 252 251 250 250 250 249 249 250 250 249 249 249 249 248 247 246 245 245 243 244 245 246 246 246 246 243 244 245 245 244 243 244 244 244
Wind_Speed
17 16 16 16 14 14 13 12 12 10 7 2 2 1 3 3 3 1 2 8 10 7 6 3 5 4 1 4 1 1 0 3 3 5 1 2 3 2 3 6 4 5 5 5 5 6 4 6 7 3 2 2 0 4 4 5 4 4 0 4 1 8 1 1 4 4 5 4 3 1 4 1 3 2 3 1 3 2 5 3 2 2 3 7 3 2 1
16 16 16 15 14 13 12 12 13 11 6 2 1 2 2 2 3 2 1 4 5 7 8 8 8 7 1 2 4 4 4 4 3 5 5 5 4 5 3 0 9 5 6 5 6 6 3 3 5 3 2 2 2 2 3 4 1 3 3 5 3 2 3 5 1 3 6 8 5 4 3 6 2 1 1 2 2 2 1 1 0 1 4 8 3 9 5
15 15 15 14 14 13 12 11 9 7 3 3 1 4 2 3 1 1 1 3 7 10 4 2 6 8 8 5 8 5 4 7 9 7 7 4 3 2 3 8 4 4 4 5 4 5 10 1 2 5 2 3 2 5 7 6 4 1 1 4 4 3 4 5 4 5 6 6 4 3 1 0 1 1 1 1 0 4 2 1 1 1 1 4 1 5 2
14 14 14 13 13 13 12 11 10 8 4 2 1 1 4 3 3 3 2 4 7 6 2 1 3 6 8 9 9 9 9 2 6 10 6 11 6 7 3 3 5 4 4 4 5 5 3 7 2 3 3 1 2 2 5 4 3 4 5 2 3 2 0 3 6 8 10 9 3 1 4 2 1 6 4 9 5 3 3 3 4 7 2 6 10 9 8
13 13 13 13 12 11 11 10 9 8 5 4 2 2 2 1 4 4 6 3 9 8 7 6 3 5 7 6 4 12 11 5 1 10 5 7 8 0 2 3 7 5 8 6 6 6 4 4 4 5 4 2 2 1 6 5 5 8 3 1 4 2 1 4 4 6 7 4 4 2 3 2 4 4 7 8 7 5 2 5 6 2 1 13 9 7 5
15 14 14 14 13 12 11 9 7 8 5 3 1 2 2 4 4 3 4 6 8 12 11 13 12 8 5 6 3 7 10 11 9 2 5 3 6 6 2 6 8 8 13 7 5 5 5 6 6 3 3 3 1 3 2 2 3 3 1 1 3 4 4 5 4 5 5 3 3 1 1 2 3 6 7 10 12 8 6 4 5 6 9 14 11 11 9
16 15 15 15 14 14 12 10 8 7 6 4 2 4 4 1 2 2 2 2 5 16 14 17 16 17 13 6 9 11 13 13 10 6 3 5 4 11 6 9 11 8 6 8 5 6 4 5 3 4 2 4 4 2 2 2 3 1 1 1 1 4 3 4 2 4 4 6 3 1 1 2 4 6 9 10 12 12 7 9 13 12 10 9 11 10 14
15 16 15 13 13 12 12 10 9 10 8 4 2 2 3 4 3 3 3 0 2 2 4 6 13 14 15 12 12 11 9 9 3 2 7 5 5 6 10 7 9 11 7 6 7 7 7 8 5 2 6 1 2 4 3 3 1 2 2 1 2 6 6 5 1 1 3 4 2 1 1 4 7 10 12 13 12 8 9 13 11 10 8 12 13 13 15
16 15 15 14 13 12 11 12 11 12 7 3 1 2 2 1 1 0 1 2 4 1 3 7 10 11 11 14 13 10 8 12 5 3 2 8 8 7 14 9 6 3 8 6 7 2 5 5 6 7 6 9 3 6 3 5 4 2 1 0 1 3 4 2 1 1 5 3 2 0 0 2 5 10 16 15 10 11 12 10 8 10 13 13 9 9 11
17 15 15 13 12 11 12 13 14 14 10 3 2 2 2 1 2 3 1 1 3 6 2 4 5 11 12 12 12 10 12 7 6 1 1 3 1 5 10 9 10 2 6 6 7 5 7 8 6 7 4 5 4 4 3 6 6 2 3 1 3 2 4 1 1 0 5 6 5 3 2 4 8 15 22 15 13 13 9 8 8 10 9 9 10 12 7
14 14 14 14 13 13 14 15 14 15 8 5 2 2 1 1 2 2 1 2 5 4 6 5 12 5 4 7 6 9 4 7 5 10 3 2 1 2 7 10 9 5 7 6 5 8 8 7 5 4 7 6 4 2 4 3 3 4 6 1 1 3 5 3 2 3 3 2 3 2 2 7 14 4 3 9 10 9 11 12 13 14 9 8 7 7 3
16 15 14 13 13 13 13 14 15 15 9 5 4 2 1 1 3 1 2 5 5 1 7 6 9 1 7 6 10 8 9 8 6 5 8 0 2 3 5 5 8 3 1 5 8 9 8 6 8 6 5 4 3 3 5 5 5 3 5 6 3 4 4 4 3 3 3 1 3 1 10 16 6 0 4 5 9 9 12 13 11 9 7 7 7 5 3
14 14 15 15 15 16 16 16 16 15 12 5 4 3 2 1 3 1 1 1 3 3 5 5 2 3 2 4 3 1 3 2 4 5 4 6 1 3 3 2 5 4 9 10 9 6 5 2 2 3 2 2 0 4 6 7 7 8 4 6 7 6 7 3 2 4 2 1 4 4 12 5 6 8 3 3 1 6 2 7 8 9 9 9 5 6 7
15 14 15 16 17 17 16 15 15 15 17 9 5 4 2 2 2 1 2 1 4 2 4 2 1 3 4 4 6 3 4 5 3 4 4 2 5 3 3 3 0 8 8 8 5 5 4 3 1 2 5 5 6 4 5 5 10 11 10 9 8 9 4 5 3 3 7 5 8 13 5 12 13 11 5 4 7 3 5 8 7 5 2 3 2 3 3
18 18 17 16 16 16 16 17 17 18 18 15 5 4 3 2 3 3 2 1 2 4 2 6 4 5 6 3 7 5 3 3 4 3 1 2 5 1 1 2 3 5 3 6 2 4 4 3 2 2 3 2 2 6 3 1 2 7 13 9 7 7 10 5 6 5 4 5 7 5 2 8 11 7 1 0 3 6 4 6 6 6 5 3 4 5 5
17 17 17 18 17 17 17 17 17 18 18 17 6 4 4 4 3 2 1 2 2 1 5 5 3 5 5 3 5 11 7 5 4 2 2 3 1 2 2 2 3 1 3 4 3 5 2 5 4 5 5 5 3 2 3 2 3 2 1 6 5 4 6 6 8 2 4 4 8 8 6 9 6 3 4 4 5 5 2 4 7 4 1 3 6 4 5
15 16 16 17 17 18 19 19 19 18 17 16 7 6 4 5 4 3 2 1 1 7 2 3 2 3 5 3 2 1 4 6 6 6 2 2 3 0 1 3 3 3 2 5 1 3 2 2 2 3 2 3 3 5 1 1 1 2 3 5 5 8 5 6 6 10 8 7 8 10 5 5 5 7 4 5 4 4 7 6 7 2 3 4 5 4 6
16 17 17 18 17 18 18 19 19 19 19 20 9 6 5 5 7 5 2 2 2 3 3 0 2 3 5 5 4 2 4 4 5 3 4 1 4 2 3 1 2 4 1 6 2 4 3 3 7 5 7 4 3 4 4 5 3 5 4 6 5 5 0 6 14 12 13 16 9 5 6 4 3 7 6 5 1 2 2 12 11 5 5 5 6 6 8
17 16 18 19 18 19 19 19 19 20 20 20 9 5 4 4 6 5 4 2 3 5 6 3 1 1 1 2 2 2 2 6 7 8 4 3 2 4 6 1 2 1 2 5 2 4 6 4 1 3 4 4 3 6 2 2 5 1 6 5 2 1 3 4 1 9 11 9 11 12 4 5 8 6 9 6 2 3 11 9 4 6 6 5 7 6 7
19 18 19 18 18 18 19 18 19 19 19 20 12 6 5 7 7 10 7 4 3 3 5 2 0 3 2 3 3 3 1 4 2 7 6 6 2 8 5 2 5 5 2 3 3 2 5 6 6 1 2 5 4 5 1 5 0 5 3 4 7 9 7 7 9 3 2 3 8 5 8 3 8 6 2 1 4 7 6 2 2 4 6 6 5 7 8
18 18 18 18 18 18 19 18 18 18 16 17 14 7 5 3 8 7 7 7 2 1 6 4 2 5 1 1 3 5 6 8 6 6 6 5 9 7 7 8 9 5 7 6 9 5 4 4 3 3 3 6 5 3 6 2 2 6 5 4 3 3 4 4 5 6 6 7 9 7 7 5 7 9 7 4 10 6 5 5 4 4 5 5 6 7 8
18 17 18 19 18 18 18 18 18 17 17 16 13 4 7 5 7 7 6 5 3 5 4 1 1 2 5 3 4 6 5 4 6 5 8 5 5 6 5 5 5 3 2 3 3 0 1 3 1 3 4 2 1 6 4 4 5 2 3 3 2 6 10 8 7 4 8 7 5 6 5 6 5 6 5 6 7 5 6 7 6 5 6 5 5 8 8
17 17 18 18 18 18 19 18 19 19 21 22 16 7 6 6 6 7 7 6 2 1 1 2 2 2 1 1 3 5 4 4 4 4 7 9 4 1 3 4 3 2 1 3 8 6 6 7 6 5 1 2 9 3 1 4 3 1 4 5 5 4 4 2 3 5 2 2 2 1 2 2 3 6 7 8 8 6 4 6 5 6 7 7 7 7 8
18 19 19 18 18 19 18 18 20 20 22 23 16 7 8 7 7 7 4 5 5 5 4 4 1 6 10 9 7 5 1 1 2 2 2 7 8 2 0 3 2 1 0 4 7 5 4 3 5 4 3 5 6 4 7 5 6 3 2 4 2 7 6 2 5 2 1 6 2 9 9 7 9 10 6 6 6 9 7 7 8 7 7 7 7 9 9
15 15 16 17 18 18 17 17 18 18 18 20 16 9 4 4 6 9 8 7 6 6 6 2 11 13 3 7 3 3 6 5 3 4 4 4 6 8 8 7 5 8 7 5 1 4 2 3 2 1 5 6 9 5 3 6 7 6 6 6 1 8 4 6 12 8 7 9 5 5 6 9 9 7 5 7 10 10 8 8 8 8 8 8 9 8 8
17 16 16 16 16 16 17 18 19 18 18 19 14 8 9 8 9 10 8 2 3 3 6 9 6 3 7 4 5 6 5 7 6 4 5 5 5 6 5 1 1 1 3 2 5 6 3 1 1 2 5 6 6 5 5 10 5 4 10 12 11 6 3 5 4 6 9 8 9 12 11 11 12 10 8 9 10 9 8 9 10 9 8 8 7 7 9
16 15 15 15 15 15 16 15 16 18 18 17 10 5 7 4 6 11 10 8 6 3 6 9 3 1 3 11 4 4 4 8 6 7 5 3 4 3 3 3 4 2 5 2 1 4 0 2 3 6 4 5 5 4 4 1 5 3 4 8 2 1 11 9 2 5 7 9 12 5 3 8 11 11 13 13 12 9 9 8 8 8 8 8 8 9 8
14 13 13 14 16 16 14 15 14 15 16 14 7 6 5 5 7 9 8 7 11 6 1 2 1 3 1 3 3 6 8 9 11 10 9 8 6 6 6 6 5 4 4 6 1 3 3 5 9 3 2 2 1 4 2 0 2 1 5 10 10 11 13 7 9 9 12 15 15 9 12 13 12 11 10 9 7 7 10 11 12 11 11 11 10 9 5
13 12 12 12 13 14 14 16 17 16 14 10 4 5 5 7 8 9 11 10 7 5 0 1 2 1 4 5 3 5 6 9 10 10 10 9 9 8 9 9 9 6 4 3 4 5 6 8 4 4 4 4 4 3 4 6 6 9 12 17 17 13 7 10 12 13 13 13 12 6 8 10 9 10 9 9 8 8 10 10 9 10 10 9 8 9 9
13 13 13 12 12 13 14 14 14 14 12 5 4 2 3 3 8 12 12 11 9 4 5 5 5 4 2 2 2 5 6 8 9 10 11 10 10 11 12 11 10 10 7 7 7 8 7 4 3 2 2 4 5 3 4 4 8 11 15 20 21 14 12 14 13 13 15 14 9 5 8 10 10 9 8 8 8 6 7 8 10 9 9 8 9 7 7
13 13 13 13 12 12 12 11 12 12 11 3 4 4 4 5 6 11 15 13 12 8 3 3 6 2 2 2 3 11 12 11 12 13 15 14 13 13 11 8 8 7 8 7 6 8 5 4 6 4 3 8 6 4 4 6 9 8 18 23 16 15 16 17 15 13 14 14 13 8 4 8 8 4 7 8 7 6 5 5 6 8 9 6 8 9 8
13 14 13 13 13 13 13 12 13 10 3 6 6 5 4 3 1 3 17 13 11 6 5 6 4 2 2 1 2 3 9 13 11 8 6 7 9 9 7 11 9 10 8 8 7 2 6 7 6 8 9 12 7 2 5 9 11 15 24 19 12 15 14 12 11 13 11 10 7 8 11 14 12 12 13 12 8 6 8 10 7 4 3 3 2 2 2
13 12 12 13 12 13 13 13 14 8 5 7 10 7 10 4 3 5 10 8 6 3 2 3 4 2 2 4 2 4 4 4 5 7 8 9 8 7 7 8 6 4 8 6 5 6 5 8 8 10 13 6 4 4 8 10 15 24 20 15 15 12 10 8 9 10 10 8 9 12 14 15 14 11 9 9 8 8 7 6 4 4 4 4 5 3 2
12 13 13 12 13 12 13 13 12 12 4 3 3 6 4 6 6 12 7 3 1 1 1 3 2 3 3 2 4 3 6 8 7 9 7 6 4 7 6 6 7 4 4 10 4 2 3 3 10 9 4 4 6 3 4 14 23 19 16 16 15 15 10 7 8 11 11 10 10 13 15 14 7 1 1 3 5 0 1 3 6 6 6 6 7 7 5
11 11 11 10 11 11 12 10 3 2 3 3 2 1 6 13 11 16 13 7 4 2 1 2 2 2 1 2 3 5 4 4 5 9 8 4 8 8 5 5 5 7 5 7 3 6 6 8 4 4 7 5 4 6 11 18 19 18 16 16 18 16 11 10 13 15 14 10 6 7 7 6 7 8 9 8 8 6 6 5 5 7 7 8 8 5 5
10 9 8 8 9 8 1 1 3 3 3 3 2 8 15 16 16 9 6 3 2 2 2 3 4 6 5 6 4 2 5 5 1 2 4 2 2 5 5 6 7 8 3 5 7 7 9 6 6 6 7 8 11 12 17 19 20 17 17 18 19 16 15 17 16 12 7 5 6 5 6 5 8 12 11 9 6 5 6 6 4 4 7 7 7 6 4
8 7 5 6 4 3 1 3 3 4 3 5 5 10 16 16 7 4 2 1 2 1 3 1 3 6 9 5 1 2 6 5 4 3 3 4 3 1 3 2 8 3 2 3 5 10 10 5 5 7 9 13 15 17 19 16 14 16 18 19 17 15 12 11 11 10 8 5 5 5 5 6 8 7 6 5 6 4 4 7 11 11 11 10 5 5 7
8 8 7 2 3 2 3 4 4 5 11 18 17 8 2 3 3 2 2 3 2 4 2 3 7 2 3 3 3 3 5 3 4 5 1 1 2 3 1 1 4 4 6 5 7 3 2 3 6 7 11 13 16 16 13 10 12 14 16 17 15 12 11 9 7 6 7 8 6 6 5 5 7 6 6 8 6 8 11 5 3 3 2 2 4 4 4
8 4 1 2 2 3 3 2 7 19 11 5 2 3 1 2 3 3 4 2 2 4 3 6 10 6 5 5 2 2 5 6 5 4 6 4 5 4 2 5 3 3 4 2 5 9 4 5 4 6 10 12 15 19 18 12 12 14 17 17 15 11 7 8 8 11 12 13 15 10 11 13 13 13 8 7 4 3 2 4 4 4 4 4 4 4 5
4 4 4 3 4 3 0 3 11 9 3 3 1 2 2 3 4 3 3 3 2 2 4 8 7 7 10 12 8 6 2 6 8 6 6 2 2 5 2 1 2 4 6 7 4 6 6 7 6 6 12 12 16 19 15 13 15 18 17 13 9 6 5 8 7 4 5 2 2 3 3 2 3 4 7 8 8 7 4 4 4 5 5 5 5 6 6
3 2 2 3 2 3 0 1 3 3 4 3 1 1 2 1 2 1 3 3 4 3 2 3 4 6 7 7 6 7 1 2 1 3 3 5 1 5 1 3 1 3 4 6 1 4 2 1 3 9 14 15 17 17 14 13 16 17 10 4 5 4 5 4 4 3 5 5 3 3 2 3 3 3 3 6 8 8 8 8 7 6 5 5 5 3 3
5 5 3 3 2 2 3 2 1 2 1 1 3 4 4 1 2 2 2 6 6 2 3 4 5 9 9 12 9 6 2 2 2 2 2 4 4 5 3 1 1 4 4 2 5 2 3 5 7 10 12 15 15 12 12 13 13 11 6 4 4 5 6 6 7 2 1 6 5 4 3 4 4 4 3 1 3 3 4 5 5 4 3 3 4 4 3
11 8 6 3 1 1 1 1 2 2 3 3 3 2 2 3 4 5 3 1 1 3 4 2 1 2 1 5 1 2 5 2 4 2 3 4 2 1 3 2 2 4 4 3 3 2 6 7 10 15 13 13 13 13 14 11 4 3 3 3 3 3 5 7 7 6 4 5 5 5 5 6 7 4 3 6 8 10 8 6 6 5 4 4 4 3 3
4 2 3 0 1 3 2 4 2 3 1 2 4 6 3 1 2 2 1 4 2 2 6 8 6 9 5 2 6 2 1 1 3 1 1 1 3 3 3 4 4 1 4 1 3 8 10 6 11 15 13 7 7 8 9 4 6 6 4 2 4 5 8 9 9 9 7 6 7 6 6 7 7 5 6 6 7 11 9 8 5 5 5 4 3 2 1
4 2 2 1 2 3 4 3 3 4 7 6 3 3 4 10 9 8 10 3 4 7 5 4 7 7 6 2 3 1 3 3 1 4 3 4 1 2 3 5 2 2 4 4 2 1 1 7 11 8 6 5 8 5 4 5 8 10 9 6 5 5 7 9 7 7 6 6 6 6 7 5 6 6 7 7 4 5 7 5 4 4 4 3 2 1 0
3 4 4 3 3 3 4 2 2 2 2 3 4 6 6 7 4 4 2 2 3 2 8 8 5 5 5 3 6 5 3 3 3 4 2 1 4 5 2 1 1 3 2 2 5 9 13 15 11 8 10 12 7 5 4 4 4 5 11 11 8 6 4 7 6 7 8 8 6 7 6 5 5 6 6 4 5 4 4 4 4 5 3 3 2 3 3
2 2 2 1 2 2 2 5 5 4 3 1 1 3 6 5 4 4 3 4 6 6 5 2 5 4 8 3 2 1 0 1 4 2 4 2 4 1 1 3 4 4 5 5 7 7 10 12 11 9 7 4 5 5 5 6 4 5 4 6 9 7 6 7 7 8 7 7 7 7 6 6 5 5 5 6 3 3 3 3 3 4 4 4 3 2 2
4 1 3 3 4 3 7 5 1 1 1 1 2 2 0 0 1 2 2 1 2 6 7 5 1 0 2 1 3 4 2 1 2 3 3 2 3 2 1 0 3 2 4 5 10 11 10 8 6 3 1 2 6 9 7 6 5 5 6 8 8 9 7 8 7 7 8 8 7 7 6 5 5 5 5 5 3 2 2 2 3 3 3 2 2 2 2
0 3 4 3 1 2 2 0 3 8 4 0 0 0 2 3 2 4 1 1 2 3 2 4 4 6 3 2 4 3 2 3 4 4 3 1 4 4 4 5 4 4 5 8 10 8 8 2 2 2 3 4 4 5 5 4 5 6 7 9 8 8 7 8 8 7 6 6 6 7 6 5 5 4 4 3 4 3 3 3 2 2 2 3 2 2 2
2 1 3 3 2 3 1 1 3 7 2 0 1 1 0 1 3 3 0 1 2 5 2 3 1 3 0 3 0 1 1 2 3 1 3 5 4 3 3 2 5 6 6 7 8 3 1 0 1 3 3 3 4 5 6 6 6 7 6 7 7 7 8 9 9 7 6 5 6 6 5 5 5 4 4 4 3 1 1 1 0 1 1 2 2 2 3
1 0 2 2 5 5 6 5 9 6 5 6 5 6 5 5 5 3 0 2 3 3 4 3 1 2 0 1 1 2 3 2 2 4 4 5 3 4 5 7 8 8 3 2 2 3 1 3 1 3 5 5 5 6 5 7 7 7 7 8 8 8 8 7 7 7 5 5 5 7 6 4 4 3 2 2 2 1 0 1 1 1 1 1 2 4 4
1 1 2 1 2 2 3 1 1 4 5 5 7 4 3 4 2 2 0 3 5 5 4 2 3 2 2 4 3 1 2 3 2 2 1 4 3 4 5 9 6 1 1 2 1 2 3 3 3 3 3 5 6 7 10 11 10 9 8 8 9 9 7 7 6 6 6 6 5 5 4 3 3 2 1 2 2 1 2 1 0 0 1 2 3 5 5
Wind_Direction
127 124 122 119 119 119 115 115 123 129 145 113 190 261 108 124 163 334 243 174 166 177 224 212 217 227 219 96 281 134 272 183 184 168 185 183 157 138 183 198 195 231 213 206 219 178 237 190 214 192 191 243 307 209 131 111 66 83 318 45 287 67 98 204 278 283 301 308 291 13 35 39 332 26 29 33 217 201 188 222 198 204 304 289 277 251 218
131 129 127 126 124 122 121 124 129 143 159 163 197 97 130 98 118 103 347 196 184 183 200 204 208 219 334 162 225 173 210 158 198 189 193 167 176 180 187 172 203 229 203 198 220 185 234 250 205 253 177 235 108 49 139 138 87 116 239 149 258 81 271 134 299 313 335 337 343 18 341 55 103 231 255 147 129 83 211 73 343 134 219 228 185 250 246
136 134 133 134 132 127 127 133 140 147 142 119 112 130 147 108 58 55 213 187 215 208 197 193 198 213 214 198 211 206 214 218 196 169 196 182 161 133 223 201 159 208 171 198 196 210 203 268 271 169 185 209 46 17 96 93 110 130 293 124 145 127 198 127 165 202 244 265 257 260 262 256 282 211 354 254 158 300 34 14 266 207 264 81 230 259 214
142 143 140 139 138 137 133 133 137 140 145 97 96 207 95 171 169 179 272 174 227 265 306 353 221 204 207 221 225 219 226 221 185 174 213 185 199 193 150 176 160 178 167 192 203 225 218 170 245 146 210 159 350 146 82 97 137 197 140 119 84 164 208 150 179 193 231 240 207 228 98 2 29 286 290 282 281 182 173 191 225 245 262 271 246 249 271
148 148 144 142 142 141 140 142 138 128 116 87 104 14 121 126 166 166 190 136 220 236 218 215 204 222 180 224 172 224 224 215 275 189 218 197 180 174 174 173 171 216 180 195 207 195 198 217 184 206 149 230 167 54 112 90 127 153 104 187 82 80 244 239 170 214 228 199 216 206 102 192 220 229 274 284 272 254 179 189 233 118 357 265 251 249 247
158 155 153 152 150 149 148 150 146 130 112 122 97 150 191 161 242 176 204 187 187 206 222 213 217 232 201 230 206 227 213 213 223 186 215 147 172 167 270 205 207 178 184 168 190 201 189 176 209 175 205 126 142 118 3 95 209 149 113 92 123 144 204 268 143 249 253 223 234 306 4 215 218 243 254 260 272 278 264 248 225 195 218 257 272 274 263
164 163 160 163 162 158 155 155 155 152 135 98 89 145 250 179 322 238 314 200 214 203 201 196 202 219 208 230 219 233 225 220 209 173 167 162 208 192 211 204 194 186 171 166 199 174 176 248 216 179 166 175 153 161 22 321 44 37 96 89 125 86 281 225 154 226 268 270 287 303 238 269 284 257 250 253 256 262 264 254 249 235 241 247 256 259 260
180 182 183 181 182 183 181 168 166 158 133 108 65 269 162 191 197 256 339 346 296 285 212 195 198 216 206 218 213 229 223 235 182 199 160 194 214 187 212 191 185 188 195 169 188 205 198 169 189 236 126 207 131 184 182 160 33 82 142 143 303 105 266 103 5 95 287 261 123 31 333 270 272 275 267 257 259 268 250 254 263 267 261 254 254 257 264
184 184 186 188 195 194 189 181 178 164 133 69 154 254 152 289 86 96 70 232 218 130 173 184 195 214 207 222 220 237 207 233 177 203 298 194 183 186 202 165 131 162 175 192 201 218 158 169 179 172 161 178 215 130 274 123 156 70 79 45 300 79 241 75 180 48 298 272 117 317 217 310 259 271 269 259 250 255 249 247 240 248 253 257 265 260 258
194 195 197 200 203 198 192 189 183 171 150 109 179 200 240 56 287 119 138 247 236 189 210 174 160 217 210 218 210 221 214 226 125 244 322 62 323 214 181 174 141 172 148 182 170 183 134 131 132 117 93 108 82 93 150 136 146 173 141 227 132 150 141 94 85 248 253 268 108 203 255 285 288 254 248 254 250 241 255 255 245 233 245 262 257 254 255
205 207 206 202 201 199 196 198 199 184 154 148 133 242 345 170 214 108 179 152 297 185 178 209 204 209 196 201 221 229 206 210 171 204 223 109 276 327 166 154 159 158 185 189 166 140 126 117 113 86 80 86 92 99 111 114 139 149 159 125 245 128 130 173 159 174 243 285 65 86 136 238 240 266 130 200 231 236 239 244 245 247 227 229 231 251 238
209 208 210 212 208 198 195 201 203 198 166 177 128 177 233 207 94 89 151 211 250 172 185 215 204 164 214 189 208 204 214 208 209 211 195 215 247 341 125 149 133 159 190 115 108 104 95 68 61 58 67 91 127 149 153 175 228 197 180 170 169 166 159 192 171 141 233 77 53 236 229 240 261 89 216 197 209 220 228 240 240 246 252 262 280 267 221
212 211 212 213 211 206 204 201 202 199 185 158 148 170 259 152 118 167 161 166 241 210 183 254 229 189 181 156 149 179 155 88 94 106 94 136 76 27 9 136 150 157 139 133 127 102 86 127 56 141 157 104 340 211 219 208 207 220 207 181 156 185 164 161 225 141 4 168 206 223 236 259 326 276 301 300 288 237 260 290 262 251 241 241 241 249 246
221 221 222 217 210 208 208 206 208 207 193 178 151 186 208 124 122 167 167 156 266 238 181 282 342 143 131 156 136 136 95 84 50 52 95 19 110 69 352 52 225 137 146 130 96 94 50 27 28 19 317 23 359 357 258 204 210 202 205 208 184 169 131 161 224 216 195 223 207 235 350 324 296 286 270 181 217 201 172 235 266 246 228 137 184 240 248
224 222 220 217 214 215 212 208 205 205 202 191 153 185 158 155 133 139 278 91 209 292 207 193 217 187 149 166 141 120 96 175 102 35 40 15 71 299 139 318 9 122 149 97 54 50 141 102 62 126 329 76 202 245 339 323 291 208 205 200 177 170 179 208 160 265 172 147 250 290 300 253 258 249 261 289 159 125 131 102 293 285 271 211 170 214 212
222 219 215 214 212 212 211 209 207 207 203 198 178 181 178 185 152 109 130 141 154 269 268 216 191 146 156 181 184 158 168 142 137 94 40 32 22 47 328 343 326 65 62 69 109 106 116 125 203 134 202 199 238 77 291 36 331 340 99 187 155 183 175 176 205 207 215 204 215 224 233 244 212 235 193 175 157 115 132 56 287 262 217 228 175 202 197
222 222 221 219 217 214 211 211 209 208 207 199 184 190 204 182 150 144 117 50 170 212 257 345 247 127 101 84 76 60 149 150 160 134 168 149 165 163 309 334 332 58 120 81 85 83 86 93 121 133 279 165 120 216 258 41 148 324 29 76 152 173 192 154 201 221 219 224 233 237 224 246 257 194 198 194 154 90 47 330 270 235 208 203 159 169 190
222 224 221 220 219 217 215 214 212 211 208 200 182 179 208 188 164 131 105 152 149 279 264 191 110 160 173 183 166 226 95 91 73 63 96 143 100 166 206 31 47 309 146 109 165 85 149 144 176 195 210 249 160 80 210 168 173 199 169 157 143 176 254 198 210 221 228 228 244 272 268 247 182 189 207 198 167 75 263 252 243 234 220 207 177 189 195
223 224 226 220 218 219 217 216 215 213 210 199 176 178 235 188 171 136 122 161 181 227 272 296 149 145 227 93 130 170 176 161 149 114 149 92 241 193 142 211 145 153 356 146 81 145 162 239 69 129 160 265 128 202 205 123 222 89 126 86 51 345 112 317 284 221 226 227 234 236 264 236 182 242 172 163 95 224 227 238 193 163 212 215 186 198 211
225 224 226 220 215 216 215 217 216 217 215 200 175 187 198 184 181 164 158 172 197 215 279 277 290 224 262 137 172 95 65 59 145 128 174 174 222 114 50 44 310 88 10 106 154 220 120 203 199 160 207 205 228 159 41 252 295 174 176 193 137 193 148 218 207 217 249 200 243 254 258 268 134 137 71 224 158 232 205 192 243 180 191 184 211 202 226
224 224 225 222 217 215 214 210 217 219 218 215 188 172 206 193 180 180 158 149 132 231 293 270 197 236 188 172 197 175 158 171 173 147 200 144 177 124 145 203 191 152 185 157 170 222 162 201 203 180 211 152 239 74 192 165 306 261 130 185 176 209 104 233 242 179 172 193 217 210 209 208 190 143 183 219 207 196 167 143 220 238 189 195 203 221 215
223 222 223 224 223 221 222 216 211 215 216 214 203 176 199 194 174 179 173 142 157 181 210 246 187 217 235 192 178 171 175 173 199 150 135 128 221 170 186 142 171 136 186 119 69 353 302 176 114 133 202 230 1 194 172 111 218 266 336 97 311 207 191 181 203 213 162 201 210 237 216 183 191 177 203 216 233 205 192 179 197 196 231 200 191 221 228
225 229 226 224 222 221 222 220 219 218 220 220 205 192 189 168 178 179 157 196 252 273 289 343 344 309 322 294 230 195 193 164 126 96 134 129 200 236 138 126 200 197 164 131 169 161 177 131 201 156 91 211 180 171 281 163 211 214 170 240 203 265 214 354 18 246 144 247 184 213 281 252 237 234 215 217 241 249 187 188 216 231 218 184 198 222 230
225 225 224 225 228 226 223 223 224 221 216 216 215 181 191 182 172 156 171 192 194 234 279 226 255 249 211 228 243 266 199 172 198 196 174 136 152 221 299 229 176 84 273 215 173 136 197 128 199 131 177 222 103 161 178 255 233 188 107 294 254 259 250 177 227 277 358 281 215 194 229 248 253 243 225 236 230 235 215 203 212 229 230 228 220 221 226
225 232 234 230 225 226 225 222 224 226 225 224 210 206 183 177 174 167 157 182 191 187 226 235 220 228 179 199 157 182 218 198 187 141 113 108 138 166 199 211 184 165 207 190 139 84 71 125 222 146 197 248 132 232 190 165 274 163 217 239 1 287 193 205 241 249 225 247 225 222 228 231 240 240 231 234 237 240 238 223 227 229 236 226 225 213 228
223 224 228 232 235 233 230 226 227 226 227 226 211 181 198 193 181 173 178 133 79 139 214 239 264 90 147 121 194 204 166 185 202 196 175 171 166 167 170 169 55 49 119 127 104 160 162 96 148 173 159 267 136 169 193 197 194 216 194 231 206 214 124 225 173 208 243 265 265 253 259 269 267 254 236 232 236 232 234 233 232 236 238 240 237 200 210
232 228 228 233 232 233 231 231 231 232 227 226 216 192 189 176 165 180 185 169 150 288 209 241 193 316 205 200 185 121 156 178 191 199 215 188 158 137 132 133 158 133 143 124 91 132 109 151 148 224 161 233 138 191 141 240 176 193 218 248 231 182 243 228 162 251 243 235 241 190 212 253 251 246 242 240 233 221 230 238 240 234 231 230 231 239 225
229 227 229 230 233 232 233 230 230 231 228 225 213 169 180 180 185 188 185 168 191 221 139 230 118 242 71 298 223 174 182 184 187 195 200 211 193 167 174 176 155 147 170 142 192 161 173 182 231 199 140 253 124 280 149 346 93 250 233 241 221 218 230 207 218 222 245 244 245 208 218 242 247 246 240 234 235 216 220 231 236 237 231 226 220 228 241
228 228 227 228 233 237 235 234 230 228 225 220 144 142 191 209 204 196 191 197 198 231 155 147 8 18 188 242 131 179 211 177 190 193 199 203 197 197 194 191 191 184 160 173 191 190 194 220 172 167 188 209 110 222 184 228 218 230 234 241 239 233 227 229 236 242 252 255 255 202 202 227 242 243 240 239 230 214 219 227 228 230 228 216 207 207 207
228 228 229 227 229 230 231 232 231 228 221 193 135 119 176 271 211 205 192 186 185 161 218 215 217 248 17 50 205 196 183 189 191 192 195 196 199 202 207 203 209 201 194 191 179 209 202 218 207 200 170 159 157 208 180 201 226 234 241 245 246 246 240 240 239 236 248 249 258 199 208 233 243 245 238 236 236 208 214 225 225 226 231 209 201 215 214
230 232 233 234 234 235 235 237 239 234 223 156 132 158 151 229 217 196 187 180 175 171 207 208 235 75 351 236 163 197 189 182 190 195 200 198 202 204 207 199 223 199 203 200 200 214 170 200 197 203 169 190 165 171 174 181 232 238 244 242 239 240 238 240 239 242 249 256 261 259 227 239 249 270 262 243 241 222 223 243 235 219 219 204 210 208 204
232 230 230 232 233 236 235 233 237 234 193 158 191 192 210 175 299 200 189 179 156 162 170 204 221 175 236 248 226 235 188 188 186 191 203 179 212 202 202 192 208 185 187 206 208 180 215 210 203 202 204 205 175 125 181 201 225 239 245 247 239 237 238 241 243 244 242 241 250 277 272 263 249 239 252 255 248 225 215 230 228 207 196 166 89 79 124
230 232 235 235 235 238 240 239 233 219 173 206 223 200 149 203 29 103 175 147 152 192 163 186 182 172 177 247 24 314 171 142 191 172 210 192 208 171 203 202 210 200 190 191 190 219 193 194 202 218 220 159 136 194 205 208 222 233 242 251 250 243 230 225 235 240 236 225 190 220 243 250 253 247 242 251 258 245 229 209 172 126 122 139 147 138 121
235 237 234 232 236 236 238 238 241 233 210 213 227 229 198 144 118 129 119 97 103 156 148 149 183 166 208 23 37 271 149 191 188 176 207 185 165 175 194 185 191 210 201 202 203 97 330 214 213 220 108 163 191 157 212 226 229 236 240 245 252 255 248 234 234 239 237 227 215 220 235 248 270 37 268 231 242 299 80 122 134 156 187 186 205 196 171
226 232 238 243 234 233 234 230 221 180 165 212 255 276 168 169 154 154 155 165 162 233 129 259 135 131 109 354 152 255 171 156 194 182 199 185 150 183 168 182 180 199 203 154 198 174 197 216 167 140 197 149 178 217 230 238 235 232 237 244 247 250 256 257 251 242 242 239 228 233 236 249 258 260 247 238 228 197 170 184 191 170 184 217 211 191 173
222 222 229 238 255 244 221 117 136 145 194 194 181 166 171 175 173 162 146 71 134 181 170 222 149 209 176 227 225 259 115 209 154 99 186 83 196 189 180 177 213 201 132 162 198 166 211 178 112 211 167 193 215 213 228 229 231 233 233 235 239 235 230 229 242 253 246 230 229 232 231 221 219 237 241 238 216 187 190 182 199 207 217 218 212 182 179
205 199 141 88 70 62 185 206 155 174 205 141 141 115 102 87 27 62 92 155 266 112 178 189 138 218 191 215 58 237 127 197 140 154 164 170 203 10 152 189 201 136 85 201 179 204 221 122 173 201 189 209 225 225 227 228 226 230 236 237 238 238 238 239 237 240 257 230 210 225 219 226 238 245 246 229 207 173 151 197 202 191 206 217 198 192 206
187 134 104 96 80 152 210 199 196 169 147 126 110 98 315 10 103 131 160 199 210 119 272 157 230 200 45 110 242 200 119 216 96 156 41 155 99 247 156 191 217 155 223 200 214 131 70 153 204 199 225 222 236 242 236 224 228 233 240 245 244 235 231 232 218 203 229 257 270 253 257 260 256 246 209 228 190 194 212 209 181 206 206 193 194 165 136
145 99 70 146 163 197 192 236 179 158 148 140 112 100 173 179 144 172 197 171 184 196 198 183 223 185 151 186 194 149 163 163 144 166 175 199 124 264 128 190 222 131 256 142 257 126 222 203 199 217 238 230 236 242 238 229 233 236 237 240 243 239 215 218 200 198 207 218 232 231 199 215 225 237 212 221 209 199 172 165 163 168 162 149 144 149 149
70 125 154 165 199 204 240 215 174 143 117 140 216 118 164 187 160 221 131 156 197 214 166 224 202 197 189 202 172 227 178 139 163 187 179 212 145 169 217 81 251 127 220 203 209 142 196 222 200 208 243 233 238 241 237 228 233 238 239 241 240 234 208 209 215 232 208 212 125 129 120 158 171 184 178 192 186 185 185 181 171 156 155 158 154 153 167
138 107 124 184 210 163 238 80 82 116 138 159 169 263 130 222 197 183 125 211 194 222 175 185 131 189 201 201 187 215 239 99 298 107 128 184 203 85 136 179 199 164 218 189 195 112 155 174 209 218 234 232 236 238 233 232 234 243 246 240 209 183 154 134 121 131 139 140 117 93 96 110 113 136 171 174 181 190 186 174 167 166 144 140 145 140 112
182 160 175 128 117 98 70 35 71 81 319 188 154 216 183 173 71 6 194 169 202 190 270 164 193 190 205 187 199 157 259 159 128 141 126 206 204 152 210 178 245 175 223 189 116 132 147 220 226 238 233 236 238 239 234 235 237 233 214 158 157 157 150 151 145 74 103 147 141 127 102 92 77 56 30 86 117 116 118 121 116 103 105 84 76 77 74
87 77 77 69 67 54 104 70 254 139 191 203 147 228 182 146 198 158 224 205 291 126 251 57 233 127 1 101 341 174 184 156 168 199 148 201 94 113 163 207 174 217 193 91 129 175 197 215 231 239 237 234 230 229 231 230 222 130 135 122 135 140 150 149 138 118 68 94 115 117 111 92 76 57 56 81 94 78 62 82 106 102 89 84 75 74 72
93 91 76 69 82 270 129 223 171 54 246 213 165 195 157 163 244 117 152 225 192 198 203 154 195 137 210 200 157 134 52 257 154 80 301 182 118 177 172 210 197 252 48 62 181 207 215 221 228 238 237 237 230 223 221 169 143 139 106 83 72 87 89 95 101 105 93 83 87 92 91 89 89 64 56 53 82 106 101 81 81 97 88 87 77 71 54
100 85 90 85 159 228 96 239 126 153 202 211 184 201 173 204 204 192 201 218 126 203 177 149 146 160 169 220 48 299 150 197 54 128 214 132 151 202 159 214 154 101 166 206 203 291 1 253 243 249 254 242 232 217 170 170 169 170 161 126 116 114 127 125 122 110 107 104 111 107 98 99 92 84 73 77 80 104 109 116 116 99 102 105 111 92 290
142 159 143 153 210 215 159 229 113 212 246 187 203 185 194 217 173 206 247 117 134 153 148 175 157 145 170 218 151 190 123 131 130 202 151 135 155 212 178 24 86 147 205 197 192 207 221 234 239 227 226 229 209 166 156 152 120 111 135 165 172 144 127 118 117 116 121 120 112 106 113 108 109 108 101 99 102 99 107 126 131 131 133 129 186 205 219
135 169 142 199 196 238 125 205 216 197 178 175 211 180 190 200 198 189 188 149 165 184 150 146 151 181 167 200 92 354 126 172 160 201 101 145 190 239 50 130 208 190 182 207 211 228 238 240 236 230 220 178 114 139 150 144 149 152 135 120 133 131 127 121 122 123 128 120 117 113 114 120 116 115 117 110 113 139 154 151 155 153 149 176 202 200 210
175 184 127 179 201 172 196 229 143 65 310 154 180 189 238 172 86 265 298 331 165 140 144 126 95 3 356 299 79 178 171 227 83 270 149 200 53 52 180 105 235 230 195 203 224 223 234 235 235 210 130 98 148 148 154 154 151 137 128 131 130 130 129 125 121 123 129 128 128 125 124 124 128 126 124 134 120 134 159 167 179 167 167 185 191 207 217
159 143 171 195 193 166 186 297 131 223 231 36 334 76 144 136 201 236 255 83 102 199 207 139 194 117 201 160 137 145 239 209 157 209 96 193 162 195 167 212 173 229 235 205 231 226 229 235 40 93 107 102 115 129 123 122 125 124 129 132 135 132 126 120 122 121 119 116 126 130 131 127 116 114 108 104 110 115 116 124 130 155 172 185 203 219 245
94 346 28 75 67 320 238 45 125 229 293 347 116 252 18 141 241 263 178 101 179 124 83 47 17 68 178 89 69 142 214 176 183 148 118 200 192 211 108 204 218 203 226 213 213 228 20 281 134 88 80 96 91 108 120 115 111 109 107 110 110 111 117 120 118 117 122 131 130 124 120 118 123 131 148 161 151 122 50 327 271 219 231 203 198 219 235
314 205 222 182 175 209 130 178 187 219 231 221 191 217 178 201 191 204 99 121 112 76 69 146 174 97 4 40 165 180 237 128 95 209 175 200 163 159 199 214 219 216 232 17 10 44 39 27 77 136 108 101 105 102 110 113 111 107 105 104 104 101 101 102 113 116 116 113 116 113 112 123 128 137 131 121 105 95 12 313 284 223 226 226 196 206 228
56 143 239 313 40 110 161 113 78 191 195 204 191 244 151 199 231 220 293 97 117 133 200 142 97 151 131 197 218 213 9 40 226 133 157 253 162 174 211 216 232 227 208 191 120 40 39 10 37 100 124 113 119 106 91 84 96 107 110 112 116 117 117 118 120 121 121 115 114 119 122 114 102 100 112 117 110 93 55 25 311 265 241 240 232 218 220